www.pogodaiklimat.ru
ПОГОДА в Ныробе

Архив погоды в Ныробе (Пермский край, Россия)

Время
(UTC), дата
18 12.06
21 12.06
00 13.06
03 13.06
06 13.06
09 13.06
12 13.06
15 13.06
21 13.06
00 14.06
03 14.06
06 14.06
09 14.06
12 14.06
15 14.06
18 14.06
21 14.06
00 15.06
03 15.06
06 15.06
09 15.06
12 15.06
15 15.06
18 15.06
21 15.06
00 16.06
03 16.06
06 16.06
09 16.06
12 16.06
15 16.06
18 16.06
21 16.06
00 17.06
03 17.06
06 17.06
09 17.06
12 17.06
15 17.06
18 17.06
21 17.06
00 18.06
03 18.06
06 18.06
09 18.06
12 18.06
15 18.06
18 18.06
00 19.06
Ветер
(напр.,м/с)
Видим. Явления Облачность Т
(С)
Тd
(С)
f
(%)
Тe
(С)
Тes
(С)
Комфортность P
(гПа)
Po
(гПа)
Тmin
(С)
Tmax
(С)
R
(мм)
R24
(мм)
S
(см)
Ю 1 {11} 4000 м дымка {гроза, ливн. дождь} 10/4 600 м
[Cb cap Ac trans Ci fib]
+18.7 +18.3 98 +21 +21 комфорт 1013.4 995.5
Ю 1 4000 м дымка 10/3 300 м
[Sc Ci fib]
+17.6 +17.3 98 +19 +19 1014.4 996.3
ЮВ 1 4000 м дымка 10/4 300 м
[Sc Ci fib]
+15.9 +15.7 99 +17 +17 1015.1 996.9
Ю 1 500 м туман, небо не видно ?/? +18.4 +18.2 99 +20 +20 1015.7 997.6 +15.8 13
ЮЗ 1 10 км {туман} 8/5 600 м
[Cu med, cong Ci fib]
+22.0 +20.9 93 +28 +34 душно 1015.9 998.1
ЮЗ 2 20 км 5/5 600 м
[Cu med, cong]
+28.8 +19.4 57 +35 +41 очень душно 1014.5 997.1
ЮВ 2 {17} 4000 м гроза, ливневой дождь 10/8 600 м
[Cb calv Ci fib]
+17.8 +16.2 90 +18 +20 1013.6 995.6
ЮВ 2 20 км {гроза, ливн. дождь} 10/3 600 м
[Cb cap Cs]
+19.0 +17.3 90 +21 +22 комфорт 1014.1 996.1 +29.8 6
Ю 1 20 км 5/1 600 м
[Sc Ci fib]
+16.5 +15.6 94 +17 +17 1013.7 995.6
штиль 0 20 км 8/1 600 м
[Sc Cc]
+14.0 +13.6 97 +14 +14 1012.8 994.5
Ю 2 20 км 8/3 600 м
[Cu hum Ci fib]
+21.7 +17.2 76 +26 +29 душно 1012.0 994.2 +13.7
Ю 2 20 км 4/0
[Ci fib]
+26.8 +18.8 62 +32 +43 очень душно 1011.3 993.9
В 1 {10} 10 км гроза, ливневой дождь 10/6 600 м
[Cb cap Ci fib]
+22.4 +17.8 75 +27 +33 душно 1011.2 993.5
Ю 4 20 км {гроза, ливн. дождь} 8/4 600 м
[Cb cap Cc]
+27.0 +16.7 53 +31 +33 душно 1009.7 992.3
Ю 2 {11} 20 км в посл. час ливневой дождь {гроза} 9/5 600 м
[Cb cap Ac trans Ci fib]
+21.8 +18.5 82 +27 +27 душно 1009.7 992.0 +29.1 6
Ю 2 20 км {гроза, ливн. дождь} 10/8 600 м
[Cb cap Ci fib]
+21.3 +17.3 78 +25 +25 комфорт 1008.2 990.5
Ю 1 {15} 10 км гроза, ливневой дождь 10/8 600 м
[Cb cap Ci fib]
+18.3 +17.9 98 +20 +20 1009.1 991.2
ЮВ 1 20 км {гроза, ливн. дождь} 6/3 600 м
[Sc Ci fib]
+18.0 +17.6 98 +19 +19 1009.0 991.1
Ю 2 20 км 5/3 600 м
[Sc Ci fib]
+20.1 +19.1 94 +24 +27 комфорт 1008.5 990.7 +18.0 15
ЮЗ 3 20 км 8/3 600 м
[Cb cap Ac trans Ci fib]
+26.0 +19.9 69 +32 +36 очень душно 1007.5 990.1
ЮЗ 3 20 км гроза без осадков 8/6 600 м
[Cb cap Ci fib]
+25.4 +18.4 65 +30 +34 душно 1007.0 989.6
Ю 3 20 км в посл. час гроза {ливн. дождь} 8/4 600 м
[Cb cap Ci fib]
+24.4 +18.6 70 +29 +32 душно 1007.4 989.9
З 4 20 км 6/5 600 м
[Cb cap Ci fib]
+25.4 +16.1 56 +29 +29 душно 1008.0 990.6 +27.6
СЗ 3 20 км 8/8 600 м
[Sc]
+20.3 +15.4 73 +23 +23 комфорт 1010.7 992.8
СЗ 2 20 км 10/8 600 м
[Sc Ac und]
+17.1 +14.0 82 +17 +17 1011.9 993.8
СЗ 2 20 км 10/6 600 м
[Sc Ac und]
+13.8 +11.9 88 +13 +13 1013.5 995.2
СЗ 4 10 км слаб. ливневой дождь 10/8 600 м
[Cb cap Ci fib]
+12.0 +10.8 92 +10 +10 1015.4 996.9 +12.0
СЗ 3 20 км {ливн. дождь} 10/10 600 м
[Sc]
+13.3 +9.6 78 +12 +12 1016.3 997.8
СЗ 4 20 км 10/10 600 м
[Sc]
+15.1 +10.6 74 +14 +14 1017.0 998.7
СЗ 3 20 км 10/10 600 м
[Sc]
+14.1 +9.8 75 +13 +13 1017.9 999.5
СЗ 1 20 км 10/10 600 м
[Sc]
+14.3 +10.2 76 +15 +15 1018.2 999.8 +15.1
В 1 20 км 3/3 600 м
[Sc]
+11.5 +10.1 91 +11 +11 1019.1 1000.5
штиль 0 20 км 1/0
[Ci fib]
+7.4 +6.9 97 +6 +6 1020.0 1001.1
штиль 0 20 км 6/0
[Ci fib]
+6.5 +6.1 97 +5 +6 1020.4 1001.5
Ю 1 50 км 3/0
[Ci fib]
+13.8 +10.5 80 +14 +19 1020.2 1001.8 +6.0
З 1 50 км 1/1 600 м
[Sc]
+20.3 +11.5 57 +23 +35 комфорт 1019.4 1001.4
С 3 50 км 5/5 600 м
[Cu med, cong]
+22.4 +9.1 43 +24 +30 комфорт 1019.4 1001.5
С 2 50 км 4/4 600 м
[Cu hum]
+23.3 +7.6 36 +24 +29 комфорт 1019.2 1001.3
С 2 50 км 3/3 600 м
[Sc diur, vesp]
+23.5 +7.0 35 +24 +25 комфорт 1019.4 1001.5 +24.3
В 1 20 км 3/0
[Ci fib]
+14.8 +9.6 71 +15 +15 1020.7 1002.3
СВ 1 20 км ясно +10.5 +8.1 85 +10 +10 1022.1 1003.4
З 1 20 км ясно +8.5 +7.0 90 +8 +8 1022.8 1003.9
штиль 0 50 км 1/0
[Ci fib]
+19.0 +10.8 59 +20 +25 1022.0 1003.9 +8.5
Ю 1 50 км 8/3 600 м
[Cu hum Ci fib]
+23.7 +6.7 33 +24 +32 комфорт 1020.7 1002.8
штиль 0 20 км 10/3 600 м
[Cu hum Ac trans Cc]
+24.8 +5.7 29 +24 +31 комфорт 1019.2 1001.5
СЗ 2 20 км 10/3 600 м
[Cu hum Ac trans Cc]
+24.4 +9.2 38 +25 +28 комфорт 1017.8 1000.1
В 2 20 км 9/4 600 м
[Sc Ac trans Ci fib]
+22.8 +9.5 43 +24 +25 комфорт 1015.6 997.8 +25.6
ЮВ 1 20 км 10/5 600 м
[Sc Ac trans Cs]
+18.2 +12.3 68 +20 +20 1014.7 996.7
ЮВ 1 20 км 9/4 600 м
[Sc Ac trans Ci fib]
+16.4 +10.0 66 +17 +17 1011.5 993.4
Местоположение метеостанции Ныроб (Пермский край, Россия): широта 60.73 долгота 56.72 высота над уровнем моря 154 м.
В архиве по умолчанию представлена погода в Ныробе за последнюю неделю. Архивные данные за месяц целиком и за предыдущие месяцы, начиная с января 2011 года, Вы можете получить, выбрав интересующий диапазон дат из раскрывающегося списка и нажав кнопку "Найти!".
*Определитесь, кто Вы:
Внимание! Время в таблицах - всемирное. Для получения местного времени необходимо прибавить поправку, которая равна 5 ч.
Некоторые строки с данными для отдельных станций могут быть выделены курсивом. Это означает, что фактические данные отсутствуют по различным причинам, а приведенные значения являются расчетными модельными данными для данного пункта наблюдений.
Смотрите также архив погоды в соседних городах и на ближайших метеорологических станциях:
Партнеры нашего сайта:      
Пояснения к столбцам:
  • Ветер - указаны скорость ветра в м/с - средняя за 10 мин, порывы в срок и между сроками (в фигурных скобках) и направление, откуда дует ветер: С - северный,
  • СВ - северо-восточный, В - восточный, ЮВ - юго-восточный, Ю - южный, ЮЗ - юго-западный, З - западный, СЗ - северо-западный.
  • Видимость - горизонтальная дальность видимости в метрах или километрах. При видимости от 1 до 10 км при отсутствии осадков обычно наблюдается дымка, при ухудшении видимости до 1 км и менее - туман. В сухую погоду видимость может ухудшаться дымом, пылью или мглою.
  • Явления - указаны атмосферные явления, наблюдавшиеся в срок или в последний час перед сроком; фигурными скобками обозначены явления, наблюдавшиеся между сроками (за 1-3 часа до срока); квадратными скобками обозначены град или гололедные отложения с указанием их диаметра в мм.
  • Облачность - указаны через наклонную черту общая и нижняя облачность в баллах и высота нижней границы облаков в метрах; квадратными скобками обозначены формы облаков: Ci - перистые, Cs - перисто-слоистые, Cc - перисто-кучевые, Ac - высококучевые, As - высокослоистые, Sc - слоисто-кучевые, Ns - слоисто-дождевые, Cu - кучевые, Cb - кучево-дождевые. Подробнее классификацию облаков см. в Атласе облаков (PDF).
  • T - Температура воздуха - температура, измеренная на высоте 2 м над землей.
  • Td - Температура точки росы - температура, при понижении до которой содержащийся в воздухе водяной пар достигнет насыщения.
  • f - Относительная влажность воздуха - влажноcть воздуха, измеренная на высоте 2 м над землей.
  • Te - Эффективная температура - температура, которую ощущает одетый по сезону человек в тени. Характеристика душности погоды. При расчете учитывается влияние влажности воздуха и скорости ветра на теплоощущения человека.
  • Tes - Эффективная температура на солнце - температура, которую ощущает человек, с поправкой на солнечный нагрев. Характеристика знойности погоды. Зависит от высоты солнца над горизонтом, облачности и скорости ветра. Ночью, в пасмурную погоду, а также при ветре 12 м/с и более поправка равна нулю.
  • P - Атмосферное давление - приведенное к уровню моря атмосферное давление.
  • Po - Атмосферное давление - измеренное на уровне метеостанции атмосферное давление.
  • Tmin - Минимальная температура - минимум температуры воздуха на высоте 2 м над землей.
  • Tmax - Максимальная температура - максимум температуры воздуха на высоте 2 м над землей.
  • R - Количество осадков - Количество выпавших осадков за период времени, мм. При наведении курсора мыши на число - период времени, за который выпало указанное количество осадков.
  • R24 - Количество осадков - Количество выпавших осадков за 24 часа, мм.
  • S - Снежный покров - Высота снежного покрова, см. При наведении курсора мыши на число - состояние снежного покрова и степень покрытия местности в баллах.